Regional Weather Roundup
Issued by NWS

Home | Current Version | Previous Version | Text Only | Print | Product List | Glossary On
Versions: 1 2 3 4 5 6 7 8 9 10 11 12 13 14 15 16 17 18 19 20 21 22 23 24 25 26 27 28 29 30 31 32 33 34 35 36 37 38 39 40 41 42 43 44 45 46 47 48 49 50
000
ASUS46 KSTO 231915
RWRCA

NORTHERN AND CENTRAL CA REGIONAL WEATHER ROUNDUP
NATIONAL WEATHER SERVICE SACRAMENTO CA
1200 PM PDT THU MAR 23 2017

NOTE: FAIR INDICATES FEW OR NO CLOUDS BELOW 12,000 FEET WITH NO
SIGNIFICANT WEATHER AND/OR OBSTRUCTIONS TO VISIBILITY.

CAZ001-003-232000-
NORTHWEST AREA

CITY           SKY/WX    TMP DP  RH WIND       PRES   REMARKS
CRESCENT CITY  CLOUDY    53  43  68 S23G31    30.12S
UKIAH          SUNNY     54  40  59 VRB3      30.20S
$$

CAZ006-505>513-232000-
BAY AREA

CITY           SKY/WX    TMP DP  RH WIND       PRES   REMARKS
SANTA ROSA     MOSUNNY   55  44  66 VRB3      30.22R
SAN RAFAEL     N/A       55  MM  MM MISG
NAPA           SUNNY     57  45  64 S6        30.23S
CONCORD        MOSUNNY   59  43  55 VRB6      30.22F
OAKLAND CITY   N/A      MM  MM  MM MISG
OAKLAND        PTSUNNY   59  45  59 W13       30.25R
SAN FRAN CITY  N/A       55  MM  60 MISG
SAN FRAN ARPT  PTSUNNY   58  43  57 W15       30.24S
LIVERMORE      MOSUNNY   57  43  59 S9        30.22F
HAYWARD        PTSUNNY   58  41  53 NW8       30.24S
REDWOOD CITY   N/A       58  MM  59 MISG
MOFFETT ARPT   PTSUNNY   59  47  64 N7        30.25S
SAN JOSE ARPT  PTSUNNY   58  43  57 NW3       30.24S
$$
CAZ034-037-514>518-232000-
CENTRAL COAST

CITY           SKY/WX    TMP DP  RH WIND       PRES   REMARKS
WATSONVILLE    MOSUNNY   55  46  71 SW6       30.26S
SALINAS        CLOUDY    57  43  59 W6        30.25S
MONTEREY       MOSUNNY   55  44  66 W5        30.26S
SAN LUIS OBISP SUNNY     63  44  50 N8        30.23R
SANTA MARIA    MOSUNNY   61  45  55 NW9       30.23R
$$
CAZ015-016-232000-
NORTHERN SACRAMENTO VALLEY

CITY           SKY/WX    TMP DP  RH WIND       PRES   REMARKS
REDDING        SUNNY     54  41  61 CALM      30.17S
RED BLUFF      SUNNY     54  46  74 S5        30.19F
OROVILLE       SUNNY     56  46  69 S3        30.22S
$$
CAZ016>018-232000-
SOUTHERN SACRAMENTO VALLEY

CITY           SKY/WX    TMP DP  RH WIND       PRES   REMARKS
AUBURN         MOSUNNY   54  45  71 S3        30.20S
BEALE AFB      MOSUNNY   56  48  72 S7        30.20S
LINCOLN        FAIR      55  45  67 SW7       30.21S
MARYSVILLE     MOSUNNY   55  47  74 S3        30.22S
SAC INTL ARPT  PTSUNNY   55  50  83 VRB5      30.21F
MATHER AIRPORT PTSUNNY   52  48  87 S6        30.23S
DOWNTOWN SAC   N/A       57  MM  MM MISG
SAC EXEC ARPT  MOSUNNY   55  49  80 CALM      30.23S
VACAVILLE      SUNNY     58  47  66 VRB5      30.22F
TRAVIS AFB     SUNNY     58  45  63 SW9       30.20F
$$
CAZ019>021-232000-
SAN JOAQUIN VALLEY

CITY           SKY/WX    TMP DP  RH WIND       PRES   REMARKS
STOCKTON       PTSUNNY   60  49  66 NW7       30.22F
MODESTO        MOSUNNY   60  46  59 N6        30.22S
MERCED         MOSUNNY   58  45  62 VRB6      30.23S
LEMOORE        PTSUNNY   56  40  55 N9        30.25S
FRESNO         PTSUNNY   56  45  66 NW10      30.25R
HANFORD        CLOUDY    55  46  71 NW6       30.26S
PORTERVILLE    SUNNY     56  45  66 NW7       30.26S
BAKERSFIELD    CLOUDY    56  43  61 NW6       30.25S
$$
CAZ011-012-071-232000-
NORTHERN MOUNTAINS

CITY           SKY/WX    TMP DP  RH WIND       PRES   REMARKS
YREKA          SUNNY     48  38  68 SW6       30.10F
MOUNT SHASTA   MOSUNNY   47  34  60 SE3       30.10F
ALTURAS        SUNNY     44  33  65 VRB3      30.11F
$$
CAZ011-012-071-232000-
SIERRA NEVADA MTNS

CITY           SKY/WX    TMP DP  RH WIND       PRES   REMARKS
BLUE CANYON    PTSUNNY   38  32  79 SW6       30.17R WCI  33
TAHOE VLY ARPT SUNNY     41  19  41 CALM      30.12S
MAMMOTH LAKES  FAIR      40  19  43 SE3       30.12S
$$




USA.gov is the U.S. government's official web portal to all federal, state and local government web resources and services.